Weather in Zelenogorsk

Russia / Mari El Republic     56°31′12″N   48°47′25″E
temp.,
°C
wind,
m/s
gust,
m/s
humid.,
%
clouds,
%
prec.,
mm/h
press.,
hPa
HPBL,
m
4 march, thu
thu400:00−7sw389698 0.3 1002261
03:00−7sw4109599 0.8 1000402
06:00−3wsw4994100 0.3 997653
09:00−2sw61194100 0.6 995775
12:00−1sw71395100 1.4 9911052
15:000wsw81589100 2.8 9881248
18:00−3w7158188 0.8 9901053
21:00−5wnw6138793 0.9 994880
5 march, fri
fri500:00−8wnw4119499 0.0 996419
03:00−12wnw379796 0.1 1000162
06:00−15nw239624 0.0 100152
09:00−11wnw238812 0.0 1003178
12:00−7w35840 0.0 1004532
15:00−6w468744 0.1 1005791
18:00−7wsw3994100 0.1 1006497
21:00−8wsw4996100 0.3 1008358
6 march, sat
sat600:00−11w379696 0.2 1009221
03:00−14nw129893 0.2 101120
06:00−14nnw3696100 0.2 1012186
09:00−15nw349085 0.2 1014257
12:00−12wnw358422 0.0 1014599
15:00−12wnw358560 0.1 1014743
18:00−16wnw229594 0.0 101420
21:00−16w229888 0.1 101420
7 march, sun
sun700:00−18w229985 0.1 101322
03:00−19wsw2210088 0.1 101320
06:00−20sw2310098 0.0 101230
09:00−16ssw359699 0.1 1010207
12:00−11s469098 0.0 1008504
15:00−10s598998 0.1 1005538
18:00−10s61293100 0.1 1003621
21:00−8s61294100 1.1 999835
8 march, mon
mon800:00−7s61294100 1.3 995849
03:00−6ssw61195100 3.0 994738
06:00−11wsw51389100 0.3 994638
09:00−11sw5109287 0.4 996489
12:00−8sw51089100 0.4 998648
15:00−6sw5884100 0.4 998699
18:00−9s2391100 0.0 99738
21:00−12n1289100 0.0 99621